Tracking 25710 objects as of 6-Jul-2022
HD Live streaming from Space Station
objects crossing your sky now

FENGYUN 1C DEB

Track FENGYUN 1C DEB now!
10-day predictions


NORAD ID: 30650
Int'l Code: 1999-025APH
Perigee: 824.5 km
Apogee: 946.2 km
Inclination: 99.2 °
Period: 102.5 minutes
Semi major axis: 7256 km
RCS: 0.0287 m2 (small)
Launch date: May 10, 1999
Source: People's Republic of China (PRC)
Launch site: Taiyaun Space Center, China (TSC)

Note: This is SATELLITE DEBRIS
aabbcc
Your satellite tracking list
Your tracking list is empty




NASA's NSSDC Master Catalog

Two Line Element Set (TLE):
1 30650U 99025APH 22186.54071215  .00000734  00000-0  47366-3 0  9996
2 30650  99.2407 180.2436 0083851  85.2925  42.0090 14.04516475786112
Source of the keplerian elements: AFSPC